Weather reports worldwide

Advertisment
Brindisi, Italy (16320): temperature & dewpoint: 19.09.2020 02:00:00 - 25.09.2020 02:00:00 (CEST)Brindisi, Italy (16320): wind speed: 19.09.2020 02:00:00 - 25.09.2020 02:00:00 (CEST)Brindisi, Italy (16320): wind direction: 19.09.2020 02:00:00 - 25.09.2020 02:00:00 (CEST)Brindisi, Italy (16320): reduced air pressure: 19.09.2020 02:00:00 - 25.09.2020 02:00:00 (CEST)Brindisi, Italy (16320): visibility: 19.09.2020 02:00:00 - 25.09.2020 02:00:00 (CEST)Brindisi, Italy (16320): precipitation: 19.09.2020 02:00:00 - 25.09.2020 02:00:00 (CEST)
Date & Time tt [°C] td [°C] ff [km/h] ff [kn] dd ppp [hPa] vv [km] rr [mm]
25.09.2020 02:00:00 21,6 18,4 13 7 S 1011,8 10 -
25.09.2020 01:00:00 22,0 18,0 13 7 S - 10 -
25.09.2020 00:00:00 22,0 18,0 9 5 S - 10 -
24.09.2020 23:00:00 22,1 18,2 9 5 SSE 1013,7 10 0,0
24.09.2020 22:00:00 23,0 18,0 8 4 S - 10 -
24.09.2020 21:00:00 24,0 18,0 8 4 SSE - 10 -
24.09.2020 20:00:00 23,4 17,7 5 3 SSE 1013,7 10 -
24.09.2020 19:00:00 24,0 18,0 8 4 SSE - 10 -
24.09.2020 18:00:00 25,0 18,0 8 4 ESE - 10 -
24.09.2020 17:00:00 24,5 18,4 9 5 ENE 1013,6 10 0,0
24.09.2020 16:00:00 25,0 18,0 9 5 NNE - 10 -
24.09.2020 15:00:00 25,0 18,0 9 5 NNE - 10 -
24.09.2020 14:00:00 25,2 17,7 13 7 NNE 1014,2 10 -
24.09.2020 13:00:00 26,0 17,0 15 8 N - 10 -
24.09.2020 12:00:00 25,0 16,0 15 8 NNW - 10 -
24.09.2020 11:00:00 25,1 15,4 16 9 NW 1014,2 10 0,0
24.09.2020 10:00:00 24,0 15,0 13 7 WNW - 10 -
24.09.2020 09:00:00 22,0 18,0 15 8 WSW - 10 -
24.09.2020 08:00:00 20,7 18,1 13 7 WSW 1013,0 10 -
24.09.2020 07:00:00 19,0 17,0 13 7 WSW - 10 -
24.09.2020 06:00:00 19,0 18,0 8 4 SW - 10 -
24.09.2020 05:00:00 20,1 18,1 9 5 SSW 1012,6 10 0,0
24.09.2020 04:00:00 20,0 19,0 5 3 SSW - 10 -
24.09.2020 03:00:00 22,0 19,0 8 4 ESE - 10 -
24.09.2020 02:00:00 21,7 19,2 9 5 E 1013,0 10 -
24.09.2020 01:00:00 22,0 18,0 5 3 N - 10 -
24.09.2020 00:00:00 21,0 19,0 5 3 NW - 10 -
23.09.2020 23:00:00 20,0 17,7 8 4 NW 1012,0 8 0,0
23.09.2020 22:00:00 22,0 17,0 24 13 NW - 8 -
23.09.2020 21:00:00 24,0 18,0 22 12 S - 10 -
23.09.2020 20:00:00 24,4 17,7 26 14 S 1010,7 10 -
23.09.2020 19:00:00 25,0 19,0 29 16 S - 10 -
23.09.2020 18:00:00 27,0 19,0 22 12 S - 10 -
23.09.2020 17:00:00 27,6 19,6 24 13 SSE 1010,6 10 0,0
23.09.2020 16:00:00 28,0 19,0 24 13 SSE - 10 -
23.09.2020 15:00:00 29,0 19,0 24 13 S - 10 -
23.09.2020 14:00:00 27,2 18,1 26 14 SSE 1012,0 10 -
23.09.2020 13:00:00 26,0 20,0 18 10 ESE - 10 -
23.09.2020 12:00:00 25,0 20,0 26 14 SE - 8 -
23.09.2020 11:00:00 25,7 21,1 22 12 ESE 1013,9 10 0,0
23.09.2020 10:00:00 26,0 20,0 9 5 ENE - 10 -
23.09.2020 09:00:00 25,0 20,0 2 1 - - 10 -
23.09.2020 08:00:00 22,5 18,7 9 5 NW 1013,0 10 -
23.09.2020 07:00:00 22,0 18,0 5 3 SSW - 10 -
23.09.2020 06:00:00 23,0 19,0 13 7 S - 10 -
23.09.2020 05:00:00 22,3 19,5 8 4 WNW 1013,1 10 0,0
23.09.2020 04:00:00 24,0 21,0 9 5 SSW - 10 -
23.09.2020 03:00:00 23,0 21,0 9 5 SSE - 10 -
23.09.2020 02:00:00 24,0 21,7 18 10 S 1013,6 10 -
23.09.2020 01:00:00 24,0 22,0 22 12 SSW - 10 -
23.09.2020 00:00:00 25,0 22,0 18 10 S - 10 -
22.09.2020 23:00:00 24,4 21,3 18 10 S 1014,0 10 0,0
22.09.2020 22:00:00 25,0 21,0 16 9 S - 10 -
22.09.2020 21:00:00 25,0 21,0 21 11 S - 10 -
22.09.2020 20:00:00 25,4 20,8 18 10 S 1014,9 10 -
22.09.2020 19:00:00 26,0 20,0 21 11 S - 10 -
22.09.2020 18:00:00 27,0 19,0 26 14 SSW - 10 -
22.09.2020 17:00:00 28,4 19,1 21 11 SSW 1014,3 10 0,0
22.09.2020 16:00:00 29,0 17,0 18 10 SSW - 10 -
22.09.2020 15:00:00 30,0 16,0 18 10 SSW - 10 -
22.09.2020 14:00:00 29,5 15,4 21 11 SSW 1015,6 10 -
22.09.2020 13:00:00 29,0 15,0 22 12 SSW - 10 -
22.09.2020 12:00:00 27,0 19,0 16 9 SE - 10 -
22.09.2020 11:00:00 26,8 20,1 18 10 SSE 1016,5 10 0,0
22.09.2020 10:00:00 26,0 19,0 15 8 S - 10 -
22.09.2020 09:00:00 23,0 19,0 13 7 ESE - 10 -
22.09.2020 08:00:00 21,5 17,8 24 13 E 1016,3 10 -
22.09.2020 07:00:00 21,0 18,0 31 17 ENE - 10 -
22.09.2020 06:00:00 23,0 21,0 11 6 SE - 10 -
22.09.2020 05:00:00 23,4 21,2 13 7 SSE 1015,0 10 0,0
22.09.2020 04:00:00 23,0 21,0 15 8 S - 10 -
22.09.2020 03:00:00 23,0 21,0 11 6 S - 10 -
22.09.2020 02:00:00 23,6 21,3 5 3 SSE 1015,9 10 -
22.09.2020 01:00:00 24,0 22,0 9 5 SSE - 9 -
22.09.2020 00:00:00 23,0 21,0 8 4 SSE - 10 -
21.09.2020 23:00:00 23,9 21,3 8 4 S 1016,2 10 0,0
21.09.2020 22:00:00 25,0 22,0 9 5 S - 10 -
21.09.2020 21:00:00 25,0 22,0 16 9 SSW - 10 -
21.09.2020 20:00:00 25,5 21,3 15 8 WSW 1015,7 10 -
21.09.2020 19:00:00 26,0 22,0 13 7 SE - 10 -
21.09.2020 18:00:00 26,0 20,0 15 8 SE - 10 -
21.09.2020 17:00:00 26,8 19,5 18 10 SE 1015,5 10 0,0
21.09.2020 16:00:00 27,0 19,0 18 10 SE - 10 -
21.09.2020 15:00:00 27,0 19,0 18 10 ESE - 10 -
21.09.2020 14:00:00 26,3 19,2 18 10 ESE 1015,8 10 -
21.09.2020 13:00:00 26,0 19,0 18 10 E - 10 -
21.09.2020 12:00:00 26,0 20,0 16 9 E - 10 -
21.09.2020 11:00:00 25,6 20,0 15 8 E 1016,6 10 0,0
21.09.2020 10:00:00 25,0 20,0 11 6 ESE - 10 -
21.09.2020 09:00:00 23,0 19,0 9 5 SSE - 10 -
21.09.2020 08:00:00 20,3 18,0 5 3 SW 1016,3 10 -
21.09.2020 07:00:00 18,0 17,0 9 5 WSW - 6 -
21.09.2020 06:00:00 18,0 17,0 5 3 WSW - 10 -
21.09.2020 05:00:00 18,4 16,7 4 2 SW 1015,5 10 0,0
21.09.2020 04:00:00 19,0 17,0 2 1 S - 10 -
21.09.2020 03:00:00 19,0 17,0 9 5 WSW - 10 -
21.09.2020 02:00:00 19,2 17,1 5 3 SW 1015,8 10 -
21.09.2020 01:00:00 20,0 18,0 8 4 WSW - 10 -
21.09.2020 00:00:00 20,0 18,0 4 2 - - 10 -
20.09.2020 23:00:00 20,8 18,4 5 3 SW 1015,7 10 0,0
20.09.2020 22:00:00 22,0 19,0 4 2 NNE - 10 -
20.09.2020 21:00:00 22,0 18,0 8 4 WSW - 10 -
20.09.2020 20:00:00 22,9 18,5 5 3 WSW 1014,9 10 -
20.09.2020 19:00:00 24,0 19,0 8 4 NW - 10 -
20.09.2020 18:00:00 24,0 19,0 13 7 N - 10 -
20.09.2020 17:00:00 24,8 18,8 16 9 N 1014,7 10 0,0
20.09.2020 16:00:00 25,0 19,0 16 9 N - 10 -
20.09.2020 15:00:00 26,0 19,0 18 10 N - 10 -
20.09.2020 14:00:00 26,3 18,4 21 11 N 1015,6 10 -
20.09.2020 13:00:00 25,0 20,0 21 11 N - 10 -
20.09.2020 12:00:00 25,0 19,0 21 11 NNW - 10 -
20.09.2020 11:00:00 25,4 19,3 21 11 NNW 1016,3 10 0,0
20.09.2020 10:00:00 25,0 20,0 18 10 NNW - 10 -
20.09.2020 09:00:00 24,0 19,0 16 9 NNW - 10 -
20.09.2020 08:00:00 23,9 18,6 13 7 N 1015,8 10 -
20.09.2020 07:00:00 23,0 19,0 9 5 NNW - 10 -
20.09.2020 06:00:00 23,0 19,0 11 6 NNW - 10 -
20.09.2020 05:00:00 23,1 18,6 11 6 N 1015,7 10 0,0
20.09.2020 04:00:00 23,0 20,0 11 6 NNW - 10 -
20.09.2020 03:00:00 23,0 20,0 13 7 NW - 10 -
20.09.2020 02:00:00 21,5 18,8 15 8 WNW 1016,3 10 -
20.09.2020 01:00:00 23,0 21,0 15 8 NW - 10 -
20.09.2020 00:00:00 22,0 19,0 16 9 WNW - 9 -
19.09.2020 23:00:00 23,9 19,1 16 9 NNW 1016,1 10 0,0
19.09.2020 22:00:00 24,0 20,0 11 6 NNW - 10 -
19.09.2020 21:00:00 24,0 20,0 13 7 NNW - 10 -
19.09.2020 20:00:00 24,2 19,6 15 8 N 1015,7 10 -
19.09.2020 19:00:00 25,0 20,0 16 9 N - 10 -
19.09.2020 18:00:00 26,0 18,0 16 9 N - 10 -
19.09.2020 17:00:00 26,8 17,3 22 12 NNE 1016,1 10 0,0
19.09.2020 16:00:00 27,0 17,0 21 11 N - 10 -
19.09.2020 15:00:00 27,0 17,0 21 11 N - 10 -
19.09.2020 14:00:00 25,9 17,9 21 11 N 1016,7 10 -
19.09.2020 13:00:00 27,0 18,0 18 10 N - 10 -
19.09.2020 12:00:00 26,0 18,0 18 10 N - 10 -
19.09.2020 11:00:00 25,7 18,3 16 9 N 1017,3 10 0,0
19.09.2020 10:00:00 26,0 19,0 16 9 N - 10 -
19.09.2020 09:00:00 26,0 18,0 16 9 N - 10 -
19.09.2020 08:00:00 25,5 18,6 21 11 N 1016,3 10 -
19.09.2020 07:00:00 25,0 18,0 18 10 N - 10 -
19.09.2020 06:00:00 25,0 18,0 21 11 N - 10 -
19.09.2020 05:00:00 25,3 18,3 22 12 N 1015,4 10 0,0
19.09.2020 04:00:00 25,0 21,0 21 11 NNW - 10 -
19.09.2020 03:00:00 25,0 22,0 22 12 NNW - 10 -
19.09.2020 02:00:00 24,9 21,6 28 15 NNW 1015,6 10 -

tt = temperature
td = dewpoint
ff = wind speed
dd = wind direction
ppp = reduced air pressure
vv = visibility
rr = precipitation

Next stations